Cairns, Australia

4:38 PM AEST on April 29, 2017 (GMT +1000)
Cairns International

Weather History for YBCS - August, 2012

Change the Weather History Date:

Thursday, August 2, 2012

  Actual Average Record
Temperature  
Mean Temperature 66 °F -  
Max Temperature 77 °F 80 °F 82 °F (2010)
Min Temperature 55 °F 64 °F 55 °F (2008)
Cooling Degree Days 1    
Growing Degree Days 16 (Base 50)    
Moisture  
Dew Point 53 °F    
Average Humidity 64    
Maximum Humidity 88    
Minimum Humidity 28    
Precipitation  
Precipitation 0.00 in 0.03 in - ()
Sea Level Pressure  
Sea Level Pressure 30.07 in    
Wind  
Wind Speed 9 mph ()    
Max Wind Speed 17 mph    
Max Gust Speed -    
Visibility 8.5 miles    
Events      
Averages and records for this station are not official NWS values.
T = Trace of Precipitation, MM = Missing Value Source: Averaged Metar Reports

Daily Weather History Graph

Daily Weather History Graph

Search for Another Location

Airport or City:

Trip Planner

Search our weather history database for the weather conditions in past years. The results will help you decide how hot, cold, wet, or windy it might be!

Date:

Astronomy

Aug. 02, 2012 Rise Set
Actual Time 6:41 AM AEST 6:04 PM AEST
Civil Twilight 6:19 AM AEST 6:27 PM AEST
Nautical Twilight 5:53 AM AEST 6:53 PM AEST
Astronomical Twilight 5:27 AM AEST 7:19 PM AEST
Moon 6:13 PM AEST (8/2) 6:20 AM AEST (8/2)
Length of Visible Light 12h 08m
Length of Day
11h 22m
Full, 100% of the Moon is Illuminated
Aug 2
Full
Aug 2
Full
Aug 10
Last Quarter
Aug 18
New
Aug 24
First Quarter

Hourly Weather History & Observations

Time (AEST) Temp. Dew Point Humidity Pressure Visibility Wind Dir Wind Speed Gust Speed Precip Events Conditions
12:00 AM 59 °F 53 °F 74% 30.10 in - South 4.6 mph - -  
12:00 AM 59.0 °F 53.6 °F 82% 30.09 in - South 4.6 mph - N/A   Clear
12:30 AM 59.0 °F 53.6 °F 82% 30.09 in - SSE 1.2 mph - N/A   Clear
1:00 AM 58 °F 53 °F 78% 30.11 in - South 5.8 mph - -  
1:00 AM 57.2 °F 53.6 °F 88% 30.09 in - South 5.8 mph - N/A   Clear
1:30 AM 57.2 °F 53.6 °F 88% 30.09 in - SSE 6.9 mph - N/A   Clear
2:00 AM 59.0 °F 53.6 °F 82% 30.06 in - SE 10.4 mph - N/A   Clear
2:30 AM 57.2 °F 53.6 °F 88% 30.06 in 6.2 mi SE 8.1 mph - N/A   Unknown
3:00 AM 57 °F 53 °F 81% 30.08 in - SSE 8.1 mph - -  
3:00 AM 57.2 °F 53.6 °F 88% 30.06 in - SSE 8.1 mph - N/A   Clear
3:30 AM 57.2 °F 51.8 °F 82% 30.06 in - SSE 8.1 mph - N/A   Clear
4:00 AM 57 °F 52 °F 79% 30.08 in - SSE 8.1 mph - -  
4:00 AM 57.2 °F 51.8 °F 82% 30.06 in - SSE 8.1 mph - N/A   Clear
4:30 AM 57.2 °F 51.8 °F 82% 30.06 in 6.2 mi SSE 10.4 mph - N/A   Scattered Clouds
5:00 AM 57.2 °F 51.8 °F 82% 30.06 in - SE 12.7 mph - N/A   Clear
5:30 AM 55.4 °F 51.8 °F 88% 30.06 in - SE 10.4 mph - N/A   Clear
6:00 AM 56 °F 51 °F 78% 30.08 in 19 mi SSE 8.1 mph - -   Partly Cloudy
6:00 AM 57.2 °F 51.8 °F 82% 30.06 in 6.2 mi SSE 8.1 mph - N/A   Scattered Clouds
6:30 AM 55.4 °F 51.8 °F 88% 30.09 in 6.2 mi SE 10.4 mph - N/A   Scattered Clouds
7:00 AM 57 °F 51 °F 76% 30.11 in - SE 12.7 mph - -  
7:00 AM 57.2 °F 51.8 °F 82% 30.09 in 6.2 mi SE 12.7 mph - N/A   Scattered Clouds
7:30 AM 57.2 °F 51.8 °F 82% 30.09 in 6.2 mi SE 10.4 mph - N/A   Partly Cloudy
8:00 AM 60.8 °F 51.8 °F 72% 30.09 in 6.2 mi SE 11.5 mph - N/A   Partly Cloudy
8:30 AM 62.6 °F 51.8 °F 68% 30.12 in 6.2 mi ESE 10.4 mph - N/A   Partly Cloudy
9:00 AM 67 °F 52 °F 48% 30.13 in 19 mi SE 10.4 mph - -   Partly Cloudy
9:00 AM 66.2 °F 51.8 °F 60% 30.12 in 6.2 mi SE 10.4 mph - N/A   Partly Cloudy
9:30 AM 69.8 °F 51.8 °F 53% 30.12 in 6.2 mi South 9.2 mph - N/A   Scattered Clouds
10:00 AM 72 °F 52 °F 38% 30.14 in - South 12.7 mph - -  
10:00 AM 71.6 °F 51.8 °F 50% 30.12 in 6.2 mi South 12.7 mph - N/A   Scattered Clouds
10:30 AM 73.4 °F 51.8 °F 47% 30.12 in 6.2 mi South 13.8 mph - N/A   Scattered Clouds
11:00 AM 75.2 °F 51.8 °F 44% 30.09 in 6.2 mi SSE 15.0 mph - N/A   Scattered Clouds
11:30 AM 75.2 °F 50.0 °F 41% 30.09 in 6.2 mi SE 17.3 mph - N/A   Scattered Clouds
12:00 PM 75 °F 51 °F 31% 30.08 in 19 mi SE 17.3 mph - -   Partly Cloudy
12:00 PM 75.2 °F 50.0 °F 41% 30.06 in 6.2 mi SE 17.3 mph - N/A   Partly Cloudy
12:30 PM 77.0 °F 50.0 °F 39% 30.06 in 6.2 mi SE 17.3 mph - N/A   Partly Cloudy
1:00 PM 77 °F 50 °F 28% 30.06 in - ESE 16.1 mph - -  
1:00 PM 77.0 °F 50.0 °F 39% 30.04 in 6.2 mi ESE 16.1 mph - N/A   Partly Cloudy
1:30 PM 77.0 °F 51.8 °F 41% 30.04 in 6.2 mi ESE 16.1 mph - N/A   Partly Cloudy
2:30 PM 77.0 °F 53.6 °F 44% 30.01 in 6.2 mi SE 15.0 mph - N/A   Partly Cloudy
3:00 PM 76 °F 53 °F 34% 30.02 in 19 mi SE 15.0 mph - -   Partly Cloudy
3:00 PM 75.2 °F 53.6 °F 47% 30.01 in 6.2 mi SE 15.0 mph - N/A   Partly Cloudy
3:30 PM 75.2 °F 53.6 °F 47% 30.01 in 6.2 mi SE 16.1 mph - N/A   Partly Cloudy
4:00 PM 74 °F 55 °F 41% 30.03 in - SE 16.1 mph - -  
4:00 PM 73.4 °F 55.4 °F 53% 30.01 in 6.2 mi SE 16.1 mph - N/A   Partly Cloudy
4:30 PM 71.6 °F 55.4 °F 57% 30.01 in 6.2 mi SE 15.0 mph - N/A   Partly Cloudy
5:00 PM 71.6 °F 53.6 °F 53% 30.04 in 6.2 mi SE 13.8 mph - N/A   Partly Cloudy
5:30 PM 69.8 °F 53.6 °F 56% 30.04 in 6.2 mi SE 15.0 mph - N/A   Partly Cloudy
6:00 PM 67 °F 55 °F 57% 30.05 in 19 mi SSE 9.2 mph - -   Partly Cloudy
6:00 PM 68.0 °F 55.4 °F 64% 30.04 in 6.2 mi SSE 9.2 mph - N/A   Scattered Clouds
6:30 PM 66.2 °F 53.6 °F 64% 30.04 in 6.2 mi South 8.1 mph - N/A   Partly Cloudy
7:00 PM 66.2 °F 55.4 °F 68% 30.06 in - South 9.2 mph - N/A   Clear
7:30 PM 66.2 °F 55.4 °F 68% 30.06 in - South 8.1 mph - N/A   Clear
8:00 PM 66.2 °F 55.4 °F 68% 30.06 in - South 9.2 mph - N/A   Clear
8:30 PM 64.4 °F 53.6 °F 68% 30.09 in - South 9.2 mph - N/A   Clear
9:00 PM 65 °F 54 °F 59% 30.10 in 19 mi South 11.5 mph - -   Partly Cloudy
9:00 PM 66.2 °F 53.6 °F 64% 30.09 in - South 11.5 mph - N/A   Clear
9:30 PM 64.4 °F 53.6 °F 68% 30.09 in - South 10.4 mph - N/A   Clear
10:00 PM 65 °F 53 °F 55% 30.11 in - South 11.5 mph - -  
10:00 PM 64.4 °F 53.6 °F 68% 30.09 in - South 11.5 mph - N/A   Clear
10:30 PM 64.4 °F 53.6 °F 68% 30.09 in - South 10.4 mph - N/A   Clear
11:00 PM 64.4 °F 51.8 °F 64% 30.09 in - South 9.2 mph - N/A   Clear
11:30 PM 62.6 °F 51.8 °F 68% 30.09 in - SSE 8.1 mph - N/A   Clear